Time,TemperatureF,DewpointF,PressureIn,WindDirection,WindDirectionDegrees,WindSpeedMPH,WindSpeedGustMPH,Humidity,HourlyPrecipIn,Conditions,Clouds,dailyrainin,SoftwareType,DateUTC
2013-03-04 00:00:00,22.3,11.4,27.94,NW,321,0.6,1.6,59,0.00,,,0.00,WSDL version 423,2013-03-04 05:00:00,
2013-03-04 00:05:00,22.1,11.3,27.94,North,358,0.6,1.6,59,0.00,,,0.00,WSDL version 423,2013-03-04 05:05:00,
2013-03-04 00:10:00,22.0,11.1,27.94,West,270,0.0,1.3,59,0.00,,,0.00,WSDL version 423,2013-03-04 05:10:00,
2013-03-04 00:15:00,21.8,11.0,27.94,SSE,158,0.0,1.1,59,0.00,,,0.00,WSDL version 423,2013-03-04 05:15:00,
2013-03-04 00:20:00,21.7,11.2,27.94,East,84,1.2,2.0,60,0.00,,,0.00,WSDL version 423,2013-03-04 05:20:00,
2013-03-04 00:25:00,21.7,11.4,27.94,NE,51,0.0,2.0,60,0.00,,,0.00,WSDL version 423,2013-03-04 05:25:00,
2013-03-04 00:30:00,21.7,11.3,27.94,ESE,113,0.0,1.6,60,0.00,,,0.00,WSDL version 423,2013-03-04 05:30:00,
2013-03-04 00:35:00,21.7,11.5,27.94,WSW,239,0.0,1.3,61,0.00,,,0.00,WSDL version 423,2013-03-04 05:35:00,
2013-03-04 00:40:00,21.4,11.4,27.94,NW,325,0.0,1.6,62,0.00,,,0.00,WSDL version 423,2013-03-04 05:40:00,
2013-03-04 00:45:00,21.3,11.4,27.94,South,180,0.4,1.6,62,0.00,,,0.00,WSDL version 423,2013-03-04 05:45:00,
2013-03-04 00:50:00,21.2,11.4,27.94,South,180,0.0,1.3,62,0.00,,,0.00,WSDL version 423,2013-03-04 05:50:00,
2013-03-04 00:55:00,21.0,11.6,27.94,South,180,0.0,1.1,63,0.00,,,0.00,WSDL version 423,2013-03-04 05:55:00,
2013-03-04 01:00:00,20.8,11.4,27.94,SSE,160,0.0,1.3,63,0.00,,,0.00,WSDL version 423,2013-03-04 06:00:00,
2013-03-04 01:05:00,20.7,11.5,27.96,West,278,0.5,1.6,64,0.00,,,0.00,WSDL version 423,2013-03-04 06:05:00,
2013-03-04 01:10:00,20.6,11.6,27.96,SSE,152,0.0,2.0,65,0.00,,,0.00,WSDL version 423,2013-03-04 06:10:00,
2013-03-04 01:15:00,20.5,11.4,27.96,NNW,348,0.5,2.5,64,0.00,,,0.00,WSDL version 423,2013-03-04 06:15:00,
2013-03-04 01:20:00,20.5,11.9,27.96,ENE,68,0.0,2.7,66,0.00,,,0.00,WSDL version 423,2013-03-04 06:20:00,
2013-03-04 01:25:00,20.5,12.1,27.96,ESE,110,1.2,2.7,66,0.00,,,0.00,WSDL version 423,2013-03-04 06:25:00,
2013-03-04 01:30:00,20.5,12.0,27.96,West,270,0.0,2.0,66,0.00,,,0.00,WSDL version 423,2013-03-04 06:30:00,
2013-03-04 01:35:00,20.3,11.8,27.96,South,180,0.0,1.6,66,0.00,,,0.00,WSDL version 423,2013-03-04 06:35:00,
2013-03-04 01:40:00,20.3,11.8,27.96,North,355,0.0,1.3,66,0.00,,,0.00,WSDL version 423,2013-03-04 06:40:00,
2013-03-04 01:45:00,20.3,12.1,27.96,WNW,287,0.0,2.0,67,0.00,,,0.00,WSDL version 423,2013-03-04 06:45:00,
2013-03-04 01:50:00,20.3,12.3,27.96,South,183,0.0,2.7,68,0.00,,,0.00,WSDL version 423,2013-03-04 06:50:00,
2013-03-04 01:55:00,20.3,12.4,27.96,WSW,238,1.1,2.7,68,0.00,,,0.00,WSDL version 423,2013-03-04 06:55:00,
2013-03-04 02:00:00,20.3,12.4,27.96,SSW,194,0.0,1.6,68,0.00,,,0.00,WSDL version 423,2013-03-04 07:00:00,
2013-03-04 02:05:00,20.2,12.3,27.96,South,190,0.7,2.0,68,0.00,,,0.00,WSDL version 423,2013-03-04 07:05:00,
2013-03-04 02:10:00,20.1,12.4,27.96,NNW,338,1.2,3.1,69,0.00,,,0.00,WSDL version 423,2013-03-04 07:10:00,
2013-03-04 02:15:00,20.1,12.5,27.96,NE,35,0.8,3.1,69,0.00,,,0.00,WSDL version 423,2013-03-04 07:15:00,
2013-03-04 02:20:00,20.1,12.5,27.96,NE,56,0.6,2.7,69,0.00,,,0.00,WSDL version 423,2013-03-04 07:20:00,
2013-03-04 02:25:00,19.9,12.5,27.96,East,88,1.6,2.7,70,0.00,,,0.00,WSDL version 423,2013-03-04 07:25:00,
2013-03-04 02:30:00,19.9,12.6,27.96,SSE,158,0.1,2.7,70,0.00,,,0.00,WSDL version 423,2013-03-04 07:30:00,
2013-03-04 02:35:00,19.9,12.6,27.96,South,173,0.0,1.3,70,0.00,,,0.00,WSDL version 423,2013-03-04 07:35:00,
2013-03-04 02:40:00,19.8,12.5,27.96,East,98,0.0,1.6,70,0.00,,,0.00,WSDL version 423,2013-03-04 07:40:00,
2013-03-04 02:45:00,19.8,12.5,27.96,WSW,255,0.0,1.6,70,0.00,,,0.00,WSDL version 423,2013-03-04 07:45:00,
2013-03-04 02:50:00,19.8,12.6,27.96,WNW,295,1.2,2.5,71,0.00,,,0.00,WSDL version 423,2013-03-04 07:50:00,
2013-03-04 02:55:00,19.7,12.7,27.96,ESE,118,0.0,2.5,71,0.00,,,0.00,WSDL version 423,2013-03-04 07:55:00,
2013-03-04 03:00:00,19.6,12.6,27.96,WSW,253,0.0,1.6,71,0.00,,,0.00,WSDL version 423,2013-03-04 08:00:00,
2013-03-04 03:05:00,19.5,12.6,27.96,ENE,70,0.8,2.2,72,0.00,,,0.00,WSDL version 423,2013-03-04 08:05:00,
2013-03-04 03:10:00,19.4,12.8,27.96,SSW,211,0.0,2.2,73,0.00,,,0.00,WSDL version 423,2013-03-04 08:10:00,
2013-03-04 03:15:00,19.5,13.0,27.96,SSE,158,1.2,2.7,73,0.00,,,0.00,WSDL version 423,2013-03-04 08:15:00,
2013-03-04 03:20:00,19.6,13.0,27.96,ESE,118,0.0,2.7,72,0.00,,,0.00,WSDL version 423,2013-03-04 08:20:00,
2013-03-04 03:25:00,19.6,12.9,27.96,South,175,0.0,1.3,72,0.00,,,0.00,WSDL version 423,2013-03-04 08:25:00,
2013-03-04 03:30:00,19.5,12.9,27.96,SW,236,0.7,2.0,72,0.00,,,0.00,WSDL version 423,2013-03-04 08:30:00,
2013-03-04 03:35:00,19.4,12.8,27.99,ESE,123,0.9,2.0,73,0.00,,,0.00,WSDL version 423,2013-03-04 08:35:00,
2013-03-04 03:40:00,19.4,13.0,27.99,ENE,68,0.5,2.0,73,0.00,,,0.00,WSDL version 423,2013-03-04 08:40:00,
2013-03-04 03:45:00,19.4,13.0,27.99,NW,315,0.8,2.0,73,0.00,,,0.00,WSDL version 423,2013-03-04 08:45:00,
2013-03-04 03:50:00,19.4,13.0,27.99,South,190,0.1,2.0,73,0.00,,,0.00,WSDL version 423,2013-03-04 08:50:00,
2013-03-04 03:55:00,19.3,12.8,27.99,SSE,166,0.7,2.0,73,0.00,,,0.00,WSDL version 423,2013-03-04 08:55:00,
2013-03-04 04:00:00,19.2,12.8,27.99,SW,225,0.0,1.6,73,0.00,,,0.00,WSDL version 423,2013-03-04 09:00:00,
2013-03-04 04:05:00,19.1,12.6,27.99,ENE,78,0.0,1.1,73,0.00,,,0.00,WSDL version 423,2013-03-04 09:05:00,
2013-03-04 04:10:00,19.1,12.7,27.99,WNW,293,0.7,2.5,73,0.00,,,0.00,WSDL version 423,2013-03-04 09:10:00,
2013-03-04 04:15:00,19.1,12.7,27.99,ENE,65,0.4,2.5,73,0.00,,,0.00,WSDL version 423,2013-03-04 09:15:00,
2013-03-04 04:20:00,19.1,12.7,27.99,East,96,0.0,1.6,74,0.00,,,0.00,WSDL version 423,2013-03-04 09:20:00,
2013-03-04 04:25:00,19.2,12.8,27.99,ESE,113,0.0,1.3,73,0.00,,,0.00,WSDL version 423,2013-03-04 09:25:00,
2013-03-04 04:30:00,19.0,12.9,27.99,WSW,248,0.0,2.0,74,0.00,,,0.00,WSDL version 423,2013-03-04 09:30:00,
2013-03-04 04:35:00,19.0,12.9,27.99,NNW,328,0.0,2.0,74,0.00,,,0.00,WSDL version 423,2013-03-04 09:35:00,
2013-03-04 04:40:00,19.0,12.8,27.99,NNW,346,0.6,1.6,73,0.00,,,0.00,WSDL version 423,2013-03-04 09:40:00,
2013-03-04 04:45:00,18.9,12.7,27.99,NNW,340,1.1,2.7,74,0.00,,,0.00,WSDL version 423,2013-03-04 09:45:00,
2013-03-04 04:50:00,18.9,12.7,27.99,North,349,0.0,2.7,74,0.00,,,0.00,WSDL version 423,2013-03-04 09:50:00,
2013-03-04 04:55:00,18.9,12.7,27.99,South,180,0.0,1.6,74,0.00,,,0.00,WSDL version 423,2013-03-04 09:55:00,
2013-03-04 05:00:00,18.7,12.6,27.99,SE,127,0.0,2.0,74,0.00,,,0.00,WSDL version 423,2013-03-04 10:00:00,
2013-03-04 05:05:00,18.7,12.8,27.99,ESE,110,1.5,2.5,75,0.00,,,0.00,WSDL version 423,2013-03-04 10:05:00,
2013-03-04 05:10:00,18.7,12.8,27.99,WNW,303,0.0,2.5,75,0.00,,,0.00,WSDL version 423,2013-03-04 10:10:00,
2013-03-04 05:15:00,18.8,12.9,27.99,NNW,338,0.0,1.3,75,0.00,,,0.00,WSDL version 423,2013-03-04 10:15:00,
2013-03-04 05:20:00,18.7,12.8,27.99,SSW,205,0.5,1.3,75,0.00,,,0.00,WSDL version 423,2013-03-04 10:20:00,
2013-03-04 05:25:00,18.7,12.8,27.99,SSE,158,0.0,2.2,75,0.00,,,0.00,WSDL version 423,2013-03-04 10:25:00,
2013-03-04 05:30:00,18.7,12.8,27.99,West,278,0.7,2.2,75,0.00,,,0.00,WSDL version 423,2013-03-04 10:30:00,
2013-03-04 05:35:00,18.5,12.7,27.99,SSW,193,1.1,2.2,75,0.00,,,0.00,WSDL version 423,2013-03-04 10:35:00,
2013-03-04 05:40:00,18.5,12.8,27.99,WNW,287,0.0,2.2,76,0.00,,,0.00,WSDL version 423,2013-03-04 10:40:00,
2013-03-04 05:45:00,18.5,12.9,27.99,SSW,200,1.0,2.5,76,0.00,,,0.00,WSDL version 423,2013-03-04 10:45:00,
2013-03-04 05:50:00,18.5,12.9,28.02,North,11,0.0,2.5,76,0.00,,,0.00,WSDL version 423,2013-03-04 10:50:00,
2013-03-04 05:55:00,18.5,12.9,28.02,East,100,1.0,1.6,76,0.00,,,0.00,WSDL version 423,2013-03-04 10:55:00,
2013-03-04 06:00:00,18.6,13.0,28.02,SSW,200,0.0,1.3,76,0.00,,,0.00,WSDL version 423,2013-03-04 11:00:00,
2013-03-04 06:05:00,18.7,13.0,28.02,South,174,0.0,1.3,75,0.00,,,0.00,WSDL version 423,2013-03-04 11:05:00,
2013-03-04 06:10:00,18.7,12.8,28.02,WSW,243,0.1,1.3,75,0.00,,,0.00,WSDL version 423,2013-03-04 11:10:00,
2013-03-04 06:15:00,18.5,12.6,28.02,WSW,242,0.0,1.3,75,0.00,,,0.00,WSDL version 423,2013-03-04 11:15:00,
2013-03-04 06:20:00,18.5,12.6,28.02,NW,320,0.0,1.3,75,0.00,,,0.00,WSDL version 423,2013-03-04 11:20:00,
2013-03-04 06:25:00,18.5,12.6,28.02,WSW,239,0.0,1.3,75,0.00,,,0.00,WSDL version 423,2013-03-04 11:25:00,
2013-03-04 06:30:00,18.3,12.5,28.02,SW,233,0.0,1.3,75,0.00,,,0.00,WSDL version 423,2013-03-04 11:30:00,
2013-03-04 06:35:00,18.3,12.5,28.02,WSW,248,0.0,1.3,75,0.00,,,0.00,WSDL version 423,2013-03-04 11:35:00,
2013-03-04 06:40:00,18.3,12.5,28.02,NNW,343,0.6,2.0,76,0.00,,,0.00,WSDL version 423,2013-03-04 11:40:00,
2013-03-04 06:45:00,18.3,12.7,28.02,WNW,293,0.0,2.0,76,0.00,,,0.00,WSDL version 423,2013-03-04 11:45:00,
2013-03-04 06:50:00,18.4,12.8,28.02,WNW,287,0.7,1.6,76,0.00,,,0.00,WSDL version 423,2013-03-04 11:50:00,
2013-03-04 06:55:00,18.5,12.9,28.02,WNW,283,0.0,1.6,76,0.00,,,0.00,WSDL version 423,2013-03-04 11:55:00,
2013-03-04 07:00:00,18.5,12.9,28.02,South,180,0.0,1.6,76,0.00,,,0.00,WSDL version 423,2013-03-04 12:00:00,
2013-03-04 07:05:00,18.5,12.9,28.02,SSW,203,0.0,1.6,76,0.00,,,0.00,WSDL version 423,2013-03-04 12:05:00,
2013-03-04 07:10:00,18.7,13.0,28.02,SE,125,0.4,2.0,76,0.00,,,0.00,WSDL version 423,2013-03-04 12:10:00,
2013-03-04 07:20:00,18.7,13.1,28.05,WNW,300,0.0,1.6,76,0.00,,,0.00,WSDL version 423,2013-03-04 12:20:00,
2013-03-04 07:25:00,18.8,13.2,28.05,NNE,17,0.0,0.9,76,0.00,,,0.00,WSDL version 423,2013-03-04 12:25:00,
2013-03-04 07:35:00,19.0,13.4,28.05,East,93,0.0,1.6,76,0.00,,,0.00,WSDL version 423,2013-03-04 12:35:00,
2013-03-04 07:40:00,19.1,13.5,28.05,ENE,68,0.5,1.6,76,0.00,,,0.00,WSDL version 423,2013-03-04 12:40:00,
2013-03-04 07:45:00,19.3,13.8,28.05,SSE,148,0.0,2.0,77,0.00,,,0.00,WSDL version 423,2013-03-04 12:45:00,
2013-03-04 07:50:00,19.6,14.0,28.05,SE,129,0.0,2.0,76,0.00,,,0.00,WSDL version 423,2013-03-04 12:50:00,
2013-03-04 07:55:00,19.8,14.3,28.05,NNW,348,0.0,1.6,77,0.00,,,0.00,WSDL version 423,2013-03-04 12:55:00,
2013-03-04 08:00:00,20.0,14.6,28.05,ESE,103,0.0,2.0,77,0.00,,,0.00,WSDL version 423,2013-03-04 13:00:00,
2013-03-04 08:05:00,20.2,14.9,28.05,East,95,0.0,2.0,77,0.00,,,0.00,WSDL version 423,2013-03-04 13:05:00,
2013-03-04 08:10:00,20.5,15.1,28.05,SSE,158,0.0,1.3,77,0.00,,,0.00,WSDL version 423,2013-03-04 13:10:00,
2013-03-04 08:15:00,20.8,15.4,28.05,SSE,158,0.0,0.0,77,0.00,,,0.00,WSDL version 423,2013-03-04 13:15:00,
2013-03-04 08:20:00,21.1,15.7,28.05,SSE,158,0.0,2.0,77,0.00,,,0.00,WSDL version 423,2013-03-04 13:20:00,
2013-03-04 08:25:00,21.3,15.6,28.05,ESE,113,0.0,2.0,76,0.00,,,0.00,WSDL version 423,2013-03-04 13:25:00,
2013-03-04 08:30:00,21.6,16.0,28.05,SE,130,0.0,1.6,76,0.00,,,0.00,WSDL version 423,2013-03-04 13:30:00,
2013-03-04 08:35:00,22.0,16.2,28.05,SSE,158,1.3,2.0,75,0.00,,,0.00,WSDL version 423,2013-03-04 13:35:00,
2013-03-04 08:40:00,22.4,16.4,28.05,ESE,105,0.0,2.0,75,0.00,,,0.00,WSDL version 423,2013-03-04 13:40:00,
2013-03-04 08:45:00,22.8,16.8,28.05,East,90,1.2,1.6,75,0.00,,,0.00,WSDL version 423,2013-03-04 13:45:00,
2013-03-04 08:50:00,23.3,17.2,28.05,SSE,158,0.0,2.0,74,0.00,,,0.00,WSDL version 423,2013-03-04 13:50:00,
2013-03-04 08:55:00,23.9,17.6,28.05,SSE,158,0.0,2.0,73,0.00,,,0.00,WSDL version 423,2013-03-04 13:55:00,
2013-03-04 09:00:00,24.5,17.9,28.05,SE,124,0.0,1.6,73,0.00,,,0.00,WSDL version 423,2013-03-04 14:00:00,
2013-03-04 09:05:00,25.3,18.3,28.05,East,93,1.3,2.0,71,0.00,,,0.00,WSDL version 423,2013-03-04 14:05:00,
2013-03-04 09:10:00,26.2,18.9,28.05,SSE,158,0.0,2.0,70,0.00,,,0.00,WSDL version 423,2013-03-04 14:10:00,
2013-03-04 09:15:00,27.2,19.4,28.05,SE,135,0.0,1.1,69,0.00,,,0.00,WSDL version 423,2013-03-04 14:15:00,
2013-03-04 09:20:00,28.0,19.5,28.05,West,259,0.0,0.0,66,0.00,,,0.00,WSDL version 423,2013-03-04 14:20:00,
2013-03-04 09:25:00,29.0,20.0,28.05,SSW,208,0.5,1.3,65,0.00,,,0.00,WSDL version 423,2013-03-04 14:25:00,
2013-03-04 09:30:00,30.0,20.4,28.05,SSE,163,0.0,1.3,62,0.00,,,0.00,WSDL version 423,2013-03-04 14:30:00,
2013-03-04 09:35:00,31.0,20.4,28.05,SSE,155,0.9,1.3,60,0.00,,,0.00,WSDL version 423,2013-03-04 14:35:00,
2013-03-04 09:40:00,31.9,20.9,28.05,SSE,158,0.1,1.6,60,0.00,,,0.00,WSDL version 423,2013-03-04 14:40:00,
2013-03-04 09:45:00,32.6,19.7,28.05,South,172,1.1,2.0,58,0.00,,,0.00,WSDL version 423,2013-03-04 14:45:00,
2013-03-04 09:50:00,33.2,19.4,28.05,SW,225,0.0,2.0,56,0.00,,,0.00,WSDL version 423,2013-03-04 14:50:00,
2013-03-04 09:55:00,33.7,19.3,28.05,SSE,152,1.2,2.9,55,0.00,,,0.00,WSDL version 423,2013-03-04 14:55:00,
2013-03-04 10:00:00,34.1,18.2,28.05,East,100,0.7,2.9,50,0.00,,,0.00,WSDL version 423,2013-03-04 15:00:00,
2013-03-04 10:05:00,34.7,18.2,28.05,ENE,78,1.9,2.9,49,0.00,,,0.00,WSDL version 423,2013-03-04 15:05:00,
2013-03-04 10:10:00,35.3,17.8,28.05,SSW,210,2.6,3.6,49,0.00,,,0.00,WSDL version 423,2013-03-04 15:10:00,
2013-03-04 10:15:00,35.7,18.6,28.05,SSE,158,0.0,3.6,48,0.00,,,0.00,WSDL version 423,2013-03-04 15:15:00,
2013-03-04 10:20:00,36.5,18.4,28.05,SSE,158,0.4,2.2,47,0.00,,,0.00,WSDL version 423,2013-03-04 15:20:00,
2013-03-04 10:25:00,37.2,18.7,28.05,SE,135,0.1,2.5,47,0.00,,,0.00,WSDL version 423,2013-03-04 15:25:00,
2013-03-04 10:30:00,38.0,18.6,28.05,East,87,0.8,3.4,44,0.00,,,0.00,WSDL version 423,2013-03-04 15:30:00,
2013-03-04 10:35:00,39.1,19.1,28.05,ESE,115,1.4,3.4,43,0.00,,,0.00,WSDL version 423,2013-03-04 15:35:00,
2013-03-04 10:40:00,40.2,18.7,28.05,ENE,78,1.1,2.9,41,0.00,,,0.00,WSDL version 423,2013-03-04 15:40:00,
2013-03-04 10:45:00,40.6,18.3,28.05,ESE,113,1.5,2.9,40,0.00,,,0.00,WSDL version 423,2013-03-04 15:45:00,
2013-03-04 10:50:00,40.6,18.2,28.05,SE,130,2.3,3.8,40,0.00,,,0.00,WSDL version 423,2013-03-04 15:50:00,
2013-03-04 10:55:00,41.4,18.5,28.05,East,84,2.6,3.8,39,0.00,,,0.00,WSDL version 423,2013-03-04 15:55:00,
2013-03-04 11:00:00,42.2,18.7,28.05,NW,318,2.3,4.0,39,0.00,,,0.00,WSDL version 423,2013-03-04 16:00:00,
2013-03-04 11:05:00,42.8,18.8,28.05,SSE,158,1.8,4.0,38,0.00,,,0.00,WSDL version 423,2013-03-04 16:05:00,
2013-03-04 11:10:00,42.9,18.3,28.05,ESE,110,2.0,3.4,37,0.00,,,0.00,WSDL version 423,2013-03-04 16:10:00,
2013-03-04 11:15:00,43.1,18.1,28.05,SW,220,1.5,4.0,37,0.00,,,0.00,WSDL version 423,2013-03-04 16:15:00,
2013-03-04 11:20:00,43.5,18.6,28.05,ENE,73,1.1,4.0,38,0.00,,,0.00,WSDL version 423,2013-03-04 16:20:00,
2013-03-04 11:25:00,43.8,17.6,28.05,WNW,293,2.4,3.4,33,0.00,,,0.00,WSDL version 423,2013-03-04 16:25:00,
2013-03-04 11:30:00,43.7,16.9,28.05,North,3,2.1,3.4,33,0.00,,,0.00,WSDL version 423,2013-03-04 16:30:00,
2013-03-04 11:35:00,43.8,17.1,28.05,SE,143,1.5,3.1,35,0.00,,,0.00,WSDL version 423,2013-03-04 16:35:00,
2013-03-04 11:40:00,44.3,17.2,28.05,ENE,59,1.2,4.3,33,0.00,,,0.00,WSDL version 423,2013-03-04 16:40:00,
2013-03-04 11:45:00,44.6,16.6,28.05,SSE,163,1.6,4.3,32,0.00,,,0.00,WSDL version 423,2013-03-04 16:45:00,
2013-03-04 11:50:00,44.9,16.8,28.02,ENE,75,2.1,3.1,32,0.00,,,0.00,WSDL version 423,2013-03-04 16:50:00,
2013-03-04 11:55:00,45.0,16.3,28.02,ENE,73,3.0,4.7,31,0.00,,,0.00,WSDL version 423,2013-03-04 16:55:00,
2013-03-04 12:00:00,44.9,16.5,28.02,North,8,2.2,4.9,32,0.00,,,0.00,WSDL version 423,2013-03-04 17:00:00,
2013-03-04 12:05:00,45.0,17.0,28.02,NW,326,1.7,4.9,33,0.00,,,0.00,WSDL version 423,2013-03-04 17:05:00,
2013-03-04 12:10:00,45.3,17.2,28.02,ENE,58,1.7,2.9,32,0.00,,,0.00,WSDL version 423,2013-03-04 17:10:00,
2013-03-04 12:15:00,45.7,17.8,28.02,NE,51,3.2,5.4,32,0.00,,,0.00,WSDL version 423,2013-03-04 17:15:00,
2013-03-04 12:20:00,46.0,17.8,28.02,NE,35,2.2,5.4,32,0.00,,,0.00,WSDL version 423,2013-03-04 17:20:00,
2013-03-04 12:25:00,46.2,17.8,28.02,NNE,30,2.1,4.3,32,0.00,,,0.00,WSDL version 423,2013-03-04 17:25:00,
2013-03-04 12:30:00,46.6,18.9,28.02,West,264,1.1,4.3,33,0.00,,,0.00,WSDL version 423,2013-03-04 17:30:00,
2013-03-04 12:35:00,47.0,19.2,28.02,West,280,2.1,3.8,32,0.00,,,0.00,WSDL version 423,2013-03-04 17:35:00,
2013-03-04 12:40:00,47.1,19.1,28.02,WSW,255,2.1,3.8,33,0.00,,,0.00,WSDL version 423,2013-03-04 17:40:00,
2013-03-04 12:45:00,47.1,19.5,28.02,WSW,255,2.3,3.1,33,0.00,,,0.00,WSDL version 423,2013-03-04 17:45:00,
2013-03-04 12:50:00,47.5,20.3,28.02,WSW,250,1.6,3.1,34,0.00,,,0.00,WSDL version 423,2013-03-04 17:50:00,
2013-03-04 12:55:00,47.8,20.1,28.02,SSE,165,2.0,4.0,33,0.00,,,0.00,WSDL version 423,2013-03-04 17:55:00,
2013-03-04 13:00:00,47.8,20.7,28.02,ENE,65,1.4,4.0,34,0.00,,,0.00,WSDL version 423,2013-03-04 18:00:00,
2013-03-04 13:05:00,48.3,21.1,27.99,NW,309,2.2,3.8,33,0.00,,,0.00,WSDL version 423,2013-03-04 18:05:00,
2013-03-04 13:10:00,48.7,20.9,27.99,North,8,2.4,4.7,33,0.00,,,0.00,WSDL version 423,2013-03-04 18:10:00,
2013-03-04 13:15:00,48.8,21.1,27.99,NNW,338,1.6,4.7,33,0.00,,,0.00,WSDL version 423,2013-03-04 18:15:00,
2013-03-04 13:20:00,49.0,21.0,27.99,ESE,110,2.1,4.3,33,0.00,,,0.00,WSDL version 423,2013-03-04 18:20:00,
2013-03-04 13:25:00,49.3,21.7,27.99,West,270,1.5,4.3,34,0.00,,,0.00,WSDL version 423,2013-03-04 18:25:00,
2013-03-04 13:30:00,49.7,22.5,27.99,SSE,148,1.6,3.1,34,0.00,,,0.00,WSDL version 423,2013-03-04 18:30:00,
2013-03-04 13:35:00,50.1,21.8,27.99,WNW,298,2.6,3.1,32,0.00,,,0.00,WSDL version 423,2013-03-04 18:35:00,
2013-03-04 13:40:00,50.3,21.6,27.99,WNW,298,2.7,4.0,32,0.00,,,0.00,WSDL version 423,2013-03-04 18:40:00,
2013-03-04 13:45:00,50.1,21.4,27.99,WSW,248,2.8,4.0,32,0.00,,,0.00,WSDL version 423,2013-03-04 18:45:00,
2013-03-04 13:50:00,50.2,21.7,27.96,West,267,1.8,4.0,33,0.00,,,0.00,WSDL version 423,2013-03-04 18:50:00,
2013-03-04 13:55:00,50.4,22.4,27.96,WSW,258,2.6,3.8,33,0.00,,,0.00,WSDL version 423,2013-03-04 18:55:00,
2013-03-04 14:00:00,50.8,22.3,27.96,NW,307,2.6,3.8,32,0.00,,,0.00,WSDL version 423,2013-03-04 19:00:00,
2013-03-04 14:05:00,51.1,22.3,27.96,WNW,298,1.6,3.8,32,0.00,,,0.00,WSDL version 423,2013-03-04 19:05:00,
2013-03-04 14:10:00,51.4,22.5,27.96,West,278,2.3,3.4,32,0.00,,,0.00,WSDL version 423,2013-03-04 19:10:00,
2013-03-04 14:20:00,51.8,22.9,27.96,WNW,295,1.4,4.0,32,0.00,,,0.00,WSDL version 423,2013-03-04 19:20:00,
2013-03-04 14:25:00,52.1,23.1,27.96,NE,42,1.7,3.1,32,0.00,,,0.00,WSDL version 423,2013-03-04 19:25:00,
2013-03-04 14:30:00,52.1,22.7,27.96,WNW,290,2.3,3.8,31,0.00,,,0.00,WSDL version 423,2013-03-04 19:30:00,
2013-03-04 14:35:00,52.4,22.9,27.96,WNW,284,1.6,4.0,32,0.00,,,0.00,WSDL version 423,2013-03-04 19:35:00,
2013-03-04 14:40:00,52.9,23.1,27.96,North,355,2.2,4.0,31,0.00,,,0.00,WSDL version 423,2013-03-04 19:40:00,
2013-03-04 14:45:00,53.1,23.3,27.96,NNW,338,2.4,3.4,31,0.00,,,0.00,WSDL version 423,2013-03-04 19:45:00,
2013-03-04 14:50:00,53.2,23.3,27.94,NNW,335,2.2,3.4,31,0.00,,,0.00,WSDL version 423,2013-03-04 19:50:00,
2013-03-04 14:55:00,53.4,23.4,27.94,South,175,2.2,4.0,30,0.00,,,0.00,WSDL version 423,2013-03-04 19:55:00,
2013-03-04 15:00:00,53.7,23.7,27.94,WNW,301,3.2,7.4,30,0.00,,,0.00,WSDL version 423,2013-03-04 20:00:00,
2013-03-04 15:05:00,53.8,23.7,27.96,SSE,153,2.4,7.4,31,0.00,,,0.00,WSDL version 423,2013-03-04 20:05:00,
2013-03-04 15:10:00,53.8,23.4,27.96,NW,312,4.3,6.3,30,0.00,,,0.00,WSDL version 423,2013-03-04 20:10:00,
2013-03-04 15:15:00,53.3,23.2,27.96,SSW,195,2.1,6.3,31,0.00,,,0.00,WSDL version 423,2013-03-04 20:15:00,
2013-03-04 15:20:00,53.7,23.8,27.96,North,8,2.6,5.4,31,0.00,,,0.00,WSDL version 423,2013-03-04 20:20:00,
2013-03-04 15:25:00,54.0,23.4,27.96,NW,315,3.2,5.4,30,0.00,,,0.00,WSDL version 423,2013-03-04 20:25:00,
2013-03-04 15:30:00,54.0,23.3,27.96,NW,304,2.5,5.4,30,0.00,,,0.00,WSDL version 423,2013-03-04 20:30:00,
2013-03-04 15:35:00,54.0,23.4,27.96,WNW,298,1.6,5.6,31,0.00,,,0.00,WSDL version 423,2013-03-04 20:35:00,
2013-03-04 15:40:00,54.1,23.7,27.96,West,273,3.1,5.6,30,0.00,,,0.00,WSDL version 423,2013-03-04 20:40:00,
2013-03-04 15:45:00,54.3,24.3,27.96,West,276,2.1,5.6,31,0.00,,,0.00,WSDL version 423,2013-03-04 20:45:00,
2013-03-04 15:50:00,54.3,24.2,27.94,NW,310,3.3,5.8,30,0.00,,,0.00,WSDL version 423,2013-03-04 20:50:00,
2013-03-04 15:55:00,54.2,24.2,27.94,NW,308,2.1,5.8,31,0.00,,,0.00,WSDL version 423,2013-03-04 20:55:00,
2013-03-04 16:00:00,54.4,24.4,27.94,WSW,250,2.2,3.4,31,0.00,,,0.00,WSDL version 423,2013-03-04 21:00:00,
2013-03-04 16:05:00,54.5,24.6,27.94,NW,308,2.8,4.7,31,0.00,,,0.00,WSDL version 423,2013-03-04 21:05:00,
2013-03-04 16:10:00,54.2,24.4,27.94,West,270,1.8,4.7,32,0.00,,,0.00,WSDL version 423,2013-03-04 21:10:00,
2013-03-04 16:15:00,54.0,24.7,27.94,WNW,303,1.1,3.8,32,0.00,,,0.00,WSDL version 423,2013-03-04 21:15:00,
2013-03-04 16:20:00,53.9,24.0,27.94,WNW,298,2.7,4.3,31,0.00,,,0.00,WSDL version 423,2013-03-04 21:20:00,
2013-03-04 16:25:00,53.9,24.0,27.94,West,273,1.3,4.3,31,0.00,,,0.00,WSDL version 423,2013-03-04 21:25:00,
2013-03-04 16:30:00,54.0,24.1,27.94,WSW,253,2.7,4.0,31,0.00,,,0.00,WSDL version 423,2013-03-04 21:30:00,
2013-03-04 16:35:00,54.1,24.2,27.94,WNW,290,2.2,4.3,31,0.00,,,0.00,WSDL version 423,2013-03-04 21:35:00,
2013-03-04 16:40:00,54.3,24.3,27.94,SSW,205,3.2,4.3,31,0.00,,,0.00,WSDL version 423,2013-03-04 21:40:00,
2013-03-04 16:45:00,53.7,23.8,27.94,ENE,73,2.7,6.3,31,0.00,,,0.00,WSDL version 423,2013-03-04 21:45:00,
2013-03-04 16:50:00,53.2,23.5,27.94,SW,228,2.0,6.3,31,0.00,,,0.00,WSDL version 423,2013-03-04 21:50:00,
2013-03-04 16:55:00,52.6,23.1,27.94,SW,214,2.5,4.3,32,0.00,,,0.00,WSDL version 423,2013-03-04 21:55:00,
2013-03-04 17:00:00,52.2,23.3,27.94,SSW,208,2.1,4.3,32,0.00,,,0.00,WSDL version 423,2013-03-04 22:00:00,
2013-03-04 17:05:00,52.0,23.1,27.94,SSW,200,1.2,3.4,32,0.00,,,0.00,WSDL version 423,2013-03-04 22:05:00,
2013-03-04 17:10:00,51.6,23.3,27.94,NW,315,0.3,2.5,33,0.00,,,0.00,WSDL version 423,2013-03-04 22:10:00,
2013-03-04 17:15:00,51.2,22.5,27.94,South,173,2.0,3.4,33,0.00,,,0.00,WSDL version 423,2013-03-04 22:15:00,
2013-03-04 17:20:00,50.9,22.7,27.94,SW,230,1.1,3.6,33,0.00,,,0.00,WSDL version 423,2013-03-04 22:20:00,
2013-03-04 17:25:00,50.6,22.1,27.94,SSE,155,1.2,4.5,32,0.00,,,0.00,WSDL version 423,2013-03-04 22:25:00,
2013-03-04 17:30:00,50.3,21.8,27.94,South,183,1.1,4.5,33,0.00,,,0.00,WSDL version 423,2013-03-04 22:30:00,
2013-03-04 17:35:00,49.9,22.0,27.96,WSW,253,0.0,2.5,33,0.00,,,0.00,WSDL version 423,2013-03-04 22:35:00,
2013-03-04 17:40:00,49.5,22.3,27.96,SSW,203,0.0,1.3,34,0.00,,,0.00,WSDL version 423,2013-03-04 22:40:00,
2013-03-04 17:45:00,49.1,22.4,27.96,South,177,0.0,1.3,35,0.00,,,0.00,WSDL version 423,2013-03-04 22:45:00,
2013-03-04 17:50:00,48.8,22.4,27.94,ESE,123,0.1,1.6,35,0.00,,,0.00,WSDL version 423,2013-03-04 22:50:00,
2013-03-04 17:55:00,48.5,22.1,27.94,SE,124,0.0,1.6,35,0.00,,,0.00,WSDL version 423,2013-03-04 22:55:00,
2013-03-04 18:00:00,48.1,22.4,27.94,SE,133,1.0,2.2,37,0.00,,,0.00,WSDL version 423,2013-03-04 23:00:00,
2013-03-04 18:05:00,47.8,22.8,27.94,East,79,0.0,2.2,37,0.00,,,0.00,WSDL version 423,2013-03-04 23:05:00,
2013-03-04 18:10:00,47.6,22.6,27.94,ENE,70,1.5,2.5,37,0.00,,,0.00,WSDL version 423,2013-03-04 23:10:00,
2013-03-04 18:15:00,47.3,22.4,27.94,ESE,110,0.0,2.5,37,0.00,,,0.00,WSDL version 423,2013-03-04 23:15:00,
2013-03-04 18:20:00,47.1,22.2,27.94,South,186,0.0,2.0,37,0.00,,,0.00,WSDL version 423,2013-03-04 23:20:00,
2013-03-04 18:25:00,46.9,22.0,27.94,SSE,165,0.1,2.0,37,0.00,,,0.00,WSDL version 423,2013-03-04 23:25:00,
2013-03-04 18:30:00,46.6,21.8,27.94,East,79,0.4,2.0,37,0.00,,,0.00,WSDL version 423,2013-03-04 23:30:00,
2013-03-04 18:35:00,46.5,21.7,27.94,East,90,1.3,2.2,37,0.00,,,0.00,WSDL version 423,2013-03-04 23:35:00,
2013-03-04 18:40:00,46.3,21.8,27.94,SE,135,0.0,2.2,38,0.00,,,0.00,WSDL version 423,2013-03-04 23:40:00,
2013-03-04 18:45:00,45.9,21.7,27.94,ENE,68,1.7,2.5,38,0.00,,,0.00,WSDL version 423,2013-03-04 23:45:00,
2013-03-04 18:50:00,45.7,21.5,27.94,ENE,68,0.1,2.5,38,0.00,,,0.00,WSDL version 423,2013-03-04 23:50:00,
2013-03-04 18:55:00,45.4,21.2,27.94,ENE,68,0.0,1.6,38,0.00,,,0.00,WSDL version 423,2013-03-04 23:55:00,
2013-03-04 19:00:00,44.9,20.9,27.94,ENE,68,1.2,1.6,38,0.00,,,0.00,WSDL version 423,2013-03-05 00:00:00,
2013-03-04 19:05:00,44.6,20.6,27.94,NE,35,0.0,1.6,38,0.00,,,0.00,WSDL version 423,2013-03-05 00:05:00,
2013-03-04 19:10:00,44.2,20.9,27.94,ENE,73,0.0,1.6,39,0.00,,,0.00,WSDL version 423,2013-03-05 00:10:00,
2013-03-04 19:15:00,43.8,20.5,27.94,ESE,113,0.0,2.0,39,0.00,,,0.00,WSDL version 423,2013-03-05 00:15:00,
2013-03-04 19:20:00,43.4,20.1,27.94,ENE,68,0.6,2.0,39,0.00,,,0.00,WSDL version 423,2013-03-05 00:20:00,
2013-03-04 19:25:00,43.2,19.9,27.94,NNE,25,0.0,1.3,39,0.00,,,0.00,WSDL version 423,2013-03-05 00:25:00,
2013-03-04 19:30:00,42.9,20.0,27.94,East,96,1.0,2.2,40,0.00,,,0.00,WSDL version 423,2013-03-05 00:30:00,
2013-03-04 19:35:00,42.6,20.0,27.94,East,98,0.7,2.2,40,0.00,,,0.00,WSDL version 423,2013-03-05 00:35:00,
2013-03-04 19:40:00,42.4,19.8,27.94,ESE,115,0.0,1.3,40,0.00,,,0.00,WSDL version 423,2013-03-05 00:40:00,
2013-03-04 19:45:00,42.1,19.5,27.94,SSE,168,0.0,0.0,40,0.00,,,0.00,WSDL version 423,2013-03-05 00:45:00,
2013-03-04 19:50:00,42.1,20.1,27.94,East,93,0.0,1.6,41,0.00,,,0.00,WSDL version 423,2013-03-05 00:50:00,
2013-03-04 19:55:00,42.0,20.0,27.94,NNW,338,0.0,1.6,41,0.00,,,0.00,WSDL version 423,2013-03-05 00:55:00,
2013-03-04 20:00:00,41.8,20.3,27.94,NE,38,0.6,2.5,42,0.00,,,0.00,WSDL version 423,2013-03-05 01:00:00,
2013-03-04 20:05:00,41.5,20.1,27.94,SSW,197,0.0,2.5,42,0.00,,,0.00,WSDL version 423,2013-03-05 01:05:00,
2013-03-04 20:10:00,41.2,20.0,27.94,SE,128,0.0,1.3,43,0.00,,,0.00,WSDL version 423,2013-03-05 01:10:00,
2013-03-04 20:15:00,41.2,20.3,27.94,SW,225,0.0,1.3,43,0.00,,,0.00,WSDL version 423,2013-03-05 01:15:00,
2013-03-04 20:20:00,41.2,20.4,27.94,ENE,68,0.0,1.1,43,0.00,,,0.00,WSDL version 423,2013-03-05 01:20:00,
2013-03-04 20:25:00,41.2,20.4,27.94,ENE,75,0.0,1.3,43,0.00,,,0.00,WSDL version 423,2013-03-05 01:25:00,
2013-03-04 20:30:00,41.3,20.5,27.94,West,278,1.1,2.2,43,0.00,,,0.00,WSDL version 423,2013-03-05 01:30:00,
2013-03-04 20:35:00,41.5,20.7,27.94,WSW,253,0.5,2.2,43,0.00,,,0.00,WSDL version 423,2013-03-05 01:35:00,
2013-03-04 20:40:00,41.6,20.8,27.94,ENE,76,1.3,2.5,43,0.00,,,0.00,WSDL version 423,2013-03-05 01:40:00,
2013-03-04 20:45:00,41.9,21.1,27.94,ENE,68,1.1,2.7,43,0.00,,,0.00,WSDL version 423,2013-03-05 01:45:00,
2013-03-04 20:50:00,42.2,21.3,27.96,NW,309,0.7,2.7,43,0.00,,,0.00,WSDL version 423,2013-03-05 01:50:00,
2013-03-04 20:55:00,41.8,21.0,27.96,East,83,0.4,2.7,43,0.00,,,0.00,WSDL version 423,2013-03-05 01:55:00,
2013-03-04 21:00:00,41.1,20.6,27.96,ENE,78,0.7,3.1,44,0.00,,,0.00,WSDL version 423,2013-03-05 02:00:00,
2013-03-04 21:05:00,40.9,20.8,27.94,ENE,68,1.7,3.6,44,0.00,,,0.00,WSDL version 423,2013-03-05 02:05:00,
2013-03-04 21:10:00,40.6,20.9,27.94,NE,45,1.5,3.6,45,0.00,,,0.00,WSDL version 423,2013-03-05 02:10:00,
2013-03-04 21:15:00,40.4,21.0,27.94,ENE,65,1.0,2.7,46,0.00,,,0.00,WSDL version 423,2013-03-05 02:15:00,
2013-03-04 21:20:00,39.8,21.2,27.94,ENE,68,1.7,3.1,48,0.00,,,0.00,WSDL version 423,2013-03-05 02:20:00,
2013-03-04 21:25:00,39.4,21.2,27.94,East,87,1.5,3.1,48,0.00,,,0.00,WSDL version 423,2013-03-05 02:25:00,
2013-03-04 21:30:00,39.2,20.8,27.94,East,95,1.5,2.9,47,0.00,,,0.00,WSDL version 423,2013-03-05 02:30:00,
2013-03-04 21:35:00,39.0,20.9,27.94,ESE,115,1.2,2.7,48,0.00,,,0.00,WSDL version 423,2013-03-05 02:35:00,
2013-03-04 21:40:00,39.0,20.9,27.94,East,101,1.5,3.1,48,0.00,,,0.00,WSDL version 423,2013-03-05 02:40:00,
2013-03-04 21:45:00,39.0,21.0,27.94,ENE,58,0.5,3.1,48,0.00,,,0.00,WSDL version 423,2013-03-05 02:45:00,
2013-03-04 21:50:00,39.0,21.2,27.96,ESE,118,2.3,3.4,49,0.00,,,0.00,WSDL version 423,2013-03-05 02:50:00,
2013-03-04 21:55:00,38.8,21.2,27.96,South,180,0.1,3.4,49,0.00,,,0.00,WSDL version 423,2013-03-05 02:55:00,
2013-03-04 22:00:00,38.6,21.1,27.96,NNE,20,0.8,2.0,49,0.00,,,0.00,WSDL version 423,2013-03-05 03:00:00,
2013-03-04 22:05:00,38.4,20.9,27.94,NE,35,1.3,2.5,49,0.00,,,0.00,WSDL version 423,2013-03-05 03:05:00,
2013-03-04 22:10:00,38.0,20.6,27.94,NNW,346,1.6,2.9,49,0.00,,,0.00,WSDL version 423,2013-03-05 03:10:00,
2013-03-04 22:15:00,37.8,20.6,27.94,NE,39,1.3,2.9,50,0.00,,,0.00,WSDL version 423,2013-03-05 03:15:00,
2013-03-04 22:20:00,37.8,20.8,27.94,ENE,70,1.4,2.7,50,0.00,,,0.00,WSDL version 423,2013-03-05 03:20:00,
2013-03-04 22:25:00,38.2,21.4,27.94,ENE,62,1.0,3.1,50,0.00,,,0.00,WSDL version 423,2013-03-05 03:25:00,
2013-03-04 22:30:00,38.7,21.7,27.94,SSW,203,1.3,3.1,51,0.00,,,0.00,WSDL version 423,2013-03-05 03:30:00,
2013-03-04 22:35:00,38.7,21.7,27.94,East,79,1.6,2.7,50,0.00,,,0.00,WSDL version 423,2013-03-05 03:35:00,
2013-03-04 22:40:00,38.8,21.8,27.94,SE,132,1.0,2.9,50,0.00,,,0.00,WSDL version 423,2013-03-05 03:40:00,
2013-03-04 22:45:00,39.2,22.1,27.94,ENE,65,1.6,2.9,50,0.00,,,0.00,WSDL version 423,2013-03-05 03:45:00,
2013-03-04 22:50:00,39.6,22.1,27.96,East,87,1.3,2.7,49,0.00,,,0.00,WSDL version 423,2013-03-05 03:50:00,
2013-03-04 22:55:00,40.1,22.5,27.96,East,90,1.3,2.7,50,0.00,,,0.00,WSDL version 423,2013-03-05 03:55:00,
2013-03-04 23:00:00,40.6,23.0,27.96,NNE,23,0.7,2.9,50,0.00,,,0.00,WSDL version 423,2013-03-05 04:00:00,
2013-03-04 23:05:00,40.3,23.1,27.96,ENE,60,2.0,2.9,50,0.00,,,0.00,WSDL version 423,2013-03-05 04:05:00,
2013-03-04 23:10:00,39.7,22.1,27.96,East,79,1.8,3.1,49,0.00,,,0.00,WSDL version 423,2013-03-05 04:10:00,
2013-03-04 23:15:00,39.4,21.8,27.96,SE,129,1.5,3.1,49,0.00,,,0.00,WSDL version 423,2013-03-05 04:15:00,
2013-03-04 23:20:00,39.4,21.9,27.96,ENE,68,2.6,3.6,50,0.00,,,0.00,WSDL version 423,2013-03-05 04:20:00,
2013-03-04 23:25:00,39.3,22.1,27.96,ENE,62,2.6,3.6,50,0.00,,,0.00,WSDL version 423,2013-03-05 04:25:00,
2013-03-04 23:30:00,39.2,21.7,27.96,ESE,105,1.1,3.4,49,0.00,,,0.00,WSDL version 423,2013-03-05 04:30:00,
2013-03-04 23:35:00,39.2,21.9,27.96,NNE,16,1.7,2.7,50,0.00,,,0.00,WSDL version 423,2013-03-05 04:35:00,
2013-03-04 23:40:00,38.9,21.9,27.96,East,85,1.1,2.7,50,0.00,,,0.00,WSDL version 423,2013-03-05 04:40:00,
2013-03-04 23:45:00,38.7,21.7,27.96,ENE,73,0.6,2.9,51,0.00,,,0.00,WSDL version 423,2013-03-05 04:45:00,
2013-03-04 23:50:00,38.7,22.1,27.96,ESE,108,2.0,2.9,51,0.00,,,0.00,WSDL version 423,2013-03-05 04:50:00,
2013-03-04 23:55:00,38.7,22.1,27.96,NE,38,1.7,4.0,51,0.00,,,0.00,WSDL version 423,2013-03-05 04:55:00,